Погода в Троицком

Россия / Орловская область     52°39′02″N   37°12′45″E
темп.,
°C
ветер,
м/с
пор.,
м/с
влажн.,
%
обл.,
%
осадки,
мм/ч
давл.,
гПа
погр.,
м
21 апреля, ср
ср2100:00+3св5893100 0.0 1006510
03:00+2с3599100 0.3 1005322
06:00+2сз3599100 0.3 1005324
09:00+3зсз4594100 0.3 1007489
12:00+5з4684100 0.1 1009713
15:00+6зюз4674100 0.1 1011982
18:00+6юз4680100 0.0 1012786
21:00+5ююз3593100 0.2 1014332
22 апреля, чт
чт2200:00+5з4587100 0.8 1015870
03:00+4юз4691100 0.9 1016523
06:00+3ююз36945 0.0 1017167
09:00+8ююз58775 0.0 1018500
12:00+12ююз796271 0.0 10181322
15:00+14ююз795664 0.8 10171744
18:00+12ююз5107183 2.0 1017777
21:00+10ю4108180 2.9 1018243
23 апреля, пт
пт2300:00+8ю4118714 0.0 1018233
03:00+8ю5148297 0.0 1018282
06:00+9ю41281100 0.0 1018291
09:00+12ю6116755 0.0 1018631
12:00+16ю8104699 0.0 10172479
15:00+15ю61054100 0.0 10151801
18:00+13ю71161100 0.6 1014894
21:00+11ю6137585 1.0 1013460
24 апреля, сб
сб2400:00+9ю51287100 0.1 1012435
03:00+8ю61191100 1.6 1010949
06:00+4зсз6895100 0.3 1010499
09:00+4з51097100 5.3 1011601
12:00+8з795778 0.5 10111885
15:00+9зюз7104593 0.5 10112430
18:00+7зюз7106283 0.5 10121423
21:00+4зюз49765 0.6 1013343
25 апреля, вс
вс2500:00+2зюз410835 0.0 1013392
03:00+1зюз511875 0.0 1013342
06:000зюз39915 0.0 1013296
09:00+4зюз577424 0.0 1014856
12:00+7зюз6756100 0.8 10131696
15:00+8зюз794898 1.9 10122125
18:00+6зюз696660 1.1 10131189
21:00+3юз38765 1.3 1014197